Location: Warszawa
(52.2500°N, 21.0000°E)
Time: 09:11:05
(UTC+02:00)

Gurwin Techsat 1B - Pass Details

Date: 02 May 2024
Orbit: 811 x 812 km, 98.9° (Epoch: 20 May)

Event Time Altitude Azimuth Distance (km) Brightness Sun altitude
Rises 04:16:23 0° 16° (NNE) 3,349 12.8 -6.9°
Reaches altitude 10° 04:18:45 10° 19° (NNE) 2,413 12.0 -6.6°
Maximum altitude 04:24:05 73° 104° (ESE) 852 8.9 -5.9°
Drops below altitude 10° 04:29:23 10° 190° (S) 2,395 10.7 -5.3°
Sets 04:31:43 0° 192° (SSW) 3,322 11.4 -5.0°
